User: anonymous   Login
Location: Monroe
(41.9160°N, 83.3980°W)
Time: 01:30:22
(UTC-05:00)
Language:

ISS - Orbit

View from above orbital plane
View from above orbital plane
View from above satellite
View from above satellite

Ground track
Ground track

The orbit data is extracted from the following two-line orbital elements,

1 25544U 98067A   15 63.67435369  .00076576  00000-0  10936-2 0  9990
2 25544 051.6423 246.0481 0008935 091.0670 269.1862 15.55555994931770
Epoch (UTC): 04 March 2015 16:11:04
Eccentricity: 0.0008935
inclination: 51.6423°
perigee height: 394 km
apogee height: 406 km
right ascension of ascending node: 246.0481°
argument of perigee: 91.0670°
revolutions per day: 15.55555994
mean anomaly at epoch: 269.1862°
orbit number at epoch: 93177

The dashed part of the orbit path shows where the satellite is in the earth's shadow,  

DLR